Flag for Germany Weather past 2 weeks in Pfaffenhofen an der Ilm, Bavaria, Germany

Now
55 °F

Partly sunny.


Feels Like: 54 °F
Forecast: 37 / 44 °F
Wind: 6 mph from Southwest

Location: Ingolstadt Airport

Current Time: Oct 21, 2014 at 11:38:54 AM

Latest Report: Oct 21, 2014 at 10:20 AM


Visibility: N/A

Pressure: 29.92 "Hg

Humidity: 88%

Dew point: 52 °F

Location of Pfaffenhofen an der IlmLocation

Historic Weather in Pfaffenhofen an der Ilm — Graph

°F

Pfaffenhofen an der Ilm temperature yesterday

Maximum temperature yesterday: 66 °F (at 12:20 PM)
Minimum temperature yesterday: 50 °F (at 5:20 AM)
Average temperature yesterday: 58 °F

Past Weeks' High & Low Weather Summary

 TemperatureHumidityPressure
High77 °F (Oct 9, 3:20 PM)100% (Oct 6, 8:20 PM)30.27 "Hg (Oct 6, 8:20 PM)
Low43 °F (Oct 7, 1:20 AM)39% (Oct 9, 3:20 PM)29.77 "Hg (Oct 15, 4:20 PM)
Average56 °F91%29.95 "Hg
* Reported Oct 6 10:20 AM — Oct 21 10:20 AM, Pfaffenhofen an der Ilm, Weather by CustomWeather, © 2014

Note: Actual official high and low records may vary slightly from our data, if they occured in-between our weather recording intervals... More about our weather records

Advertising

Pfaffenhofen an der Ilm weather history for previous 24 hours

 ConditionsComfort  
Time TempWeatherWind HumidityBarometerVisibility
10:20 AM
Oct 21
55 °FPartly sunny.6 mph88%29.92 "HgN/A
9:45 AM54 °FPartly sunny.5 mph94%29.92 "HgN/A
9:20 AM50 °FFog.2 mph100%29.95 "Hg2 mi
9:03 AM50 °FPartly sunny.2 mph100%29.95 "Hg1 mi
8:20 AM48 °FPassing clouds.2 mph100%29.95 "Hg1 mi
8:03 AM46 °FFog.2 mph100%29.95 "Hg1 mi
7:20 AM48 °FFog.1 mph100%29.95 "Hg1 mi
6:20 AM50 °FFog.3 mph100%29.98 "HgN/A
5:20 AM50 °FFog.3 mph100%29.98 "HgN/A
4:20 AM52 °FCool.3 mph100%29.98 "Hg4 mi
3:20 AM55 °FCool.8 mph88%29.98 "Hg4 mi
2:20 AM55 °FCool.2 mph100%30.01 "Hg3 mi
1:20 AM55 °FCool.6 mph100%29.98 "Hg3 mi
12:20 AM57 °FCool.5 mph94%30.01 "Hg2 mi
11:20 PM
Oct 20
57 °FCool.7 mph100%30.01 "Hg2 mi
10:20 PM57 °FCool.6 mph100%30.01 "Hg3 mi
9:20 PM59 °FLight rain. Passing clouds.3 mph94%30.01 "HgN/A
8:20 PM59 °FLight rain. Passing clouds.5 mph94%30.04 "HgN/A
7:20 PM59 °FLight rain. Partly cloudy.6 mph100%30.04 "HgN/A
6:20 PM59 °FSprinkles. Broken clouds.3 mph100%30.04 "Hg5 mi
5:52 PM61 °FRain showers. Broken clouds.5 mph94%30.04 "Hg2 mi
5:20 PM61 °FSprinkles. Broken clouds.3 mph94%30.04 "Hg4 mi
4:20 PM66 °FSprinkles. Partly sunny.6 mph78%30.07 "HgN/A
3:20 PM64 °FBroken clouds.5 mph83%30.07 "HgN/A
2:20 PM66 °FBroken clouds.7 mph78%30.07 "HgN/A
1:20 PM66 °FBroken clouds.7 mph73%30.09 "HgN/A
12:20 PM66 °FPartly sunny.6 mph73%30.09 "HgN/A
11:20 AM64 °FPartly sunny.5 mph78%30.12 "HgN/A
Weather by CustomWeather, © 2014

See weather overviewHow to use our weather pages